Location: ??????
(56.0120°N, 39.1740°E)
Time: 20:47:40
(UTC+00:00)

PSLV R/B - Pass Details

Date: 14 April 2026
Orbit: 584 x 680 km, 97.9° (Epoch: 11 May)

Event Time Altitude Azimuth Distance (km) Brightness Sun altitude
Rises 21:55:05 0° 11° (N) 2,873 8.4 -24.0°
Reaches altitude 10° 21:57:23 10° 3° (N) 1,953 7.2 -23.9°
Maximum altitude 22:01:18 38° 296° (WNW) 910 4.5 -23.9°
Enters shadow 22:01:40 37° 282° (WNW) 924 4.4 -23.8°
